User: anonymous   Login
Location: Trois-Rivi�res
(46.3500°N, 72.5500°W)
Time: 21:30:48
(UTC-04:00)
Language:

Cosmos 1975 - Orbit

View from above orbital plane
View from above orbital plane
View from above satellite
View from above satellite

Ground track
Ground track

The orbit data is extracted from the following two-line orbital elements,

1 19573U 88093A   16273.40808597  .00000931  00000-0  65386-4 0  9998
2 19573  82.5199 237.7160 0016205 105.2735 255.0284 15.03860355520610
Epoch (UTC): 29 September 2016 09:47:38
Eccentricity: 0.0016205
inclination: 82.5199°
perigee height: 544 km
apogee height: 566 km
right ascension of ascending node: 237.7160°
argument of perigee: 105.2735°
revolutions per day: 15.03860355
mean anomaly at epoch: 255.0284°
orbit number at epoch: 52061

The dashed part of the orbit path shows where the satellite is in the earth's shadow,  

DLR